TimeEDT,TemperatureF,Dew PointF,Humidity,Sea Level PressureIn,VisibilityMPH,Wind Direction,Wind SpeedMPH,Gust SpeedMPH,PrecipitationIn,Events,Conditions,WindDirDegrees,DateUTC
12:53 AM,68.0,50.0,52,29.91,10.0,NNE,10.4,-,N/A,,Mostly Cloudy,20,2013-09-14 04:53:00
1:53 AM,66.0,50.0,56,29.92,10.0,NNE,12.7,21.9,N/A,,Scattered Clouds,20,2013-09-14 05:53:00
2:53 AM,64.9,48.9,56,29.93,10.0,NNE,10.4,-,N/A,,Partly Cloudy,20,2013-09-14 06:53:00
3:53 AM,63.0,48.9,60,29.94,10.0,North,9.2,-,N/A,,Scattered Clouds,10,2013-09-14 07:53:00
4:53 AM,62.1,50.0,65,29.96,10.0,NNE,8.1,-,N/A,,Partly Cloudy,20,2013-09-14 08:53:00
5:53 AM,61.0,50.0,67,29.97,10.0,NNE,10.4,-,N/A,,Mostly Cloudy,30,2013-09-14 09:53:00
6:53 AM,60.1,50.0,69,29.99,10.0,NNE,11.5,-,N/A,,Mostly Cloudy,30,2013-09-14 10:53:00
7:53 AM,59.0,50.0,72,30.02,10.0,NE,10.4,-,N/A,,Partly Cloudy,40,2013-09-14 11:53:00
8:53 AM,62.1,51.1,67,30.04,10.0,NNE,12.7,-,N/A,,Mostly Cloudy,30,2013-09-14 12:53:00
9:53 AM,66.0,50.0,56,30.06,10.0,NE,12.7,-,N/A,,Mostly Cloudy,50,2013-09-14 13:53:00
10:53 AM,69.1,51.1,53,30.07,10.0,NE,13.8,-,N/A,,Partly Cloudy,40,2013-09-14 14:53:00
11:53 AM,72.0,51.1,48,30.07,10.0,NE,13.8,21.9,N/A,,Clear,40,2013-09-14 15:53:00
12:53 PM,73.0,52.0,48,30.06,10.0,NE,11.5,18.4,N/A,,Clear,50,2013-09-14 16:53:00
1:53 PM,75.0,53.1,46,30.06,10.0,ENE,10.4,17.3,N/A,,Clear,60,2013-09-14 17:53:00
2:53 PM,77.0,54.0,45,30.05,10.0,NE,8.1,-,N/A,,Clear,40,2013-09-14 18:53:00
3:53 PM,77.0,54.0,45,30.04,10.0,NNE,8.1,-,N/A,,Clear,30,2013-09-14 19:53:00
4:53 PM,78.1,54.0,43,30.04,10.0,NNE,6.9,-,N/A,,Clear,20,2013-09-14 20:53:00
5:53 PM,77.0,55.0,47,30.05,10.0,North,5.8,-,N/A,,Clear,10,2013-09-14 21:53:00
6:53 PM,73.9,55.9,53,30.05,10.0,ENE,6.9,-,N/A,,Clear,60,2013-09-14 22:53:00
7:53 PM,70.0,55.9,61,30.08,10.0,NE,3.5,-,N/A,,Clear,50,2013-09-14 23:53:00
8:53 PM,68.0,55.9,65,30.10,10.0,ENE,4.6,-,N/A,,Clear,60,2013-09-15 00:53:00
9:53 PM,66.9,55.9,68,30.12,10.0,ENE,5.8,-,N/A,,Clear,60,2013-09-15 01:53:00
10:53 PM,66.0,55.9,70,30.14,10.0,East,5.8,-,N/A,,Scattered Clouds,80,2013-09-15 02:53:00
11:53 PM,64.9,55.0,70,30.14,10.0,East,3.5,-,N/A,,Clear,80,2013-09-15 03:53:00